Location: Ponte Samoggia
(44.5667°N, 11.1333°E)
Time: 23:42:06
(UTC+00:00)

Cosmos 2333 Rocket - Pass Details

Date: 26 May 2022
Orbit: 839 x 863 km, 70.8° (Epoch: 26 June)

Event Time Altitude Azimuth Distance (km) Brightness Sun altitude
Exits shadow 00:19:42 12° 267° (W) 2,291 4.2 -22.6°
Maximum altitude 00:23:24 22° 312° (NW) 1,757 4.1 -22.4°
Drops below altitude 10° 00:27:47 10° 3° (N) 2,477 5.7 -22.1°
Sets 00:30:49 0° 18° (NNE) 3,420 6.9 -21.9°
